[[{"header":{"parameterUnit":"m.s-1","parameterCategory":1,"la1":30.2991,"la2":30.254,"lo1":-89.0895,"lo2":-89.0444,"dy":0.0017,"dx":0.0017,"nx":28,"ny":28,"refTime":"2023-08-17T21:00:00:Z","depth":0,"parameterNumber":2,"parameterNumberName":"U-component_of_WINDS"},"data":[0,0,0,0,0,0,0,0,0,0,0,0,0,0,0,0,0,0,0,0,0,0,0,0,0,0,0,0,0,0,0,0,0,0,0,0,0,0,0,0,0,0,0,0,0,0,0,0,0,0,0,0,0,0,0,0,0,0,1.5765,1.5765,0,1.5847,1.5848,1.5849,1.5828,1.5826,1.5825,1.5823,1.5914,1.5918,1.5922,0,0,0,0,0,0,0,0,0,0,0,0,0,1.5594,1.5597,1.5764,1.5765,1.5767,1.5847,1.5848,1.5849,1.5828,1.5826,1.5824,1.5822,1.5913,1.5918,1.5922,0,0,0,0,0,0,0,0,0,0,0,0,0,1.5672,1.5598,1.5764,1.5766,1.5766,1.5847,1.5848,1.585,1.5829,1.5826,1.5824,1.5821,1.5911,1.5917,1.5923,1.6009,0,0,1.5941,1.5944,0,0,0,0,0,0,0,0,1.5667,1.5678,1.5764,1.5766,1.5767,1.5825,1.5822,1.5903,1.5829,1.5805,1.5823,1.582,1.5887,1.5895,1.5916,1.6014,1.6017,1.5942,1.5945,1.5948,1.595,0,0,0,0,0,0,0,1.5662,1.5674,1.5797,1.5766,1.5767,1.5764,1.5772,1.5837,1.5859,1.5807,1.5806,1.5816,1.5887,1.591,1.5918,1.6019,1.5942,1.5947,1.5951,1.5953,1.6192,1.6194,0,0,0,0,0,0,1.5655,1.567,1.5795,1.58,1.571,1.5769,1.5778,1.5809,1.5858,1.5863,1.5818,1.5814,1.5901,1.5911,1.5921,1.6025,1.5948,1.5953,1.5957,1.6189,1.6192,1.6195,0,0,0,0,0,0,1.5651,1.5666,1.5791,1.5735,1.575,1.5774,1.5809,1.5812,1.5834,1.5866,1.5871,1.5837,1.59,1.5913,1.5987,1.6028,1.5956,1.5962,1.6186,1.619,1.6194,1.6234,0,0,0,0,0,0,1.5646,1.5665,1.5696,1.5735,1.5753,1.5854,1.5811,1.5815,1.5844,1.584,1.5885,1.589,1.5899,1.5978,1.5993,1.6035,1.5966,1.6182,1.6188,1.6193,1.6229,1.6239,1.6247,0,0,0,0,0,1.564,1.5706,1.5698,1.5713,1.5793,1.5857,1.5867,1.5874,1.5847,1.588,1.5901,1.5889,1.6021,1.5986,1.6002,1.6047,1.618,1.6186,1.6192,1.6225,1.6237,1.6247,0,0,0,0,0,0,1.5673,1.5711,1.5703,1.5782,1.5816,1.5853,1.5894,1.5886,1.593,1.5925,1.5933,1.5944,1.602,1.6041,1.6001,1.6133,1.6097,1.6107,1.6116,1.6128,1.6137,1.613,1.5971,0,0,0,0,0,1.5689,1.5736,1.5767,1.5834,1.5852,1.587,1.5898,1.59,1.5936,1.5951,1.5977,1.6015,1.6064,1.6097,1.6145,1.6232,1.6242,1.627,1.628,1.6287,1.6295,1.6343,1.6356,1.6216,1.6216,1.6216,0,0,1.5724,1.575,1.5779,1.5842,1.5868,1.5918,1.5882,1.5937,1.5974,1.596,1.6031,1.6052,1.6094,1.6175,1.6212,1.6195,1.6336,1.6295,1.63,1.6305,1.6351,1.6364,1.6376,1.622,1.6219,1.6219,0,0,1.5811,1.5836,1.5894,1.5921,1.5961,1.5973,1.5987,1.6025,1.6037,1.6109,1.6099,1.6145,1.6231,1.6261,1.6288,1.6388,1.6379,1.6403,1.6451,1.6497,1.6508,1.6518,1.6554,1.6566,1.6412,1.6412,1.6412,0,1.5849,1.5922,1.5926,1.5981,1.6009,1.5997,1.6057,1.6084,1.6138,1.6158,1.6138,1.6245,1.6273,1.6361,1.6385,1.6407,1.6424,1.6398,1.6506,1.6516,1.6525,1.6559,1.6573,1.6414,1.6414,1.6414,1.6414,0,1.5967,1.6018,1.6061,1.6111,1.6144,1.6202,1.6216,1.625,1.6249,1.6264,1.6337,1.6369,1.6423,1.6445,1.6446,1.6533,1.6521,1.6503,1.6467,1.6541,1.6573,1.6586,1.6418,1.6417,1.6417,1.6416,0,0,1.6077,1.6129,1.6144,1.6167,1.621,1.6251,1.6309,1.6359,1.6388,1.6426,1.6475,1.6548,1.6532,1.6562,1.6567,1.6607,1.6684,1.6585,1.6586,1.6602,1.6782,1.6795,1.681,1.6678,1.6681,1.6683,1.6779,0,1.6169,1.6267,1.6273,1.6363,1.6411,1.64,1.645,1.6483,1.6499,1.6543,1.6561,1.6612,1.6587,1.6605,1.6645,1.6666,1.672,1.6659,1.6725,1.6728,1.6714,1.6826,1.684,1.6929,1.6791,1.6793,1.6795,0,1.6288,1.6328,1.6422,1.6459,1.6479,1.6524,1.6571,1.6613,1.665,1.6659,1.6693,1.6691,1.6752,1.6714,1.6798,1.6757,1.6784,1.6799,1.6803,1.6809,1.6765,1.6835,1.6957,1.697,1.6815,1.6813,1.6812,0,1.6358,1.6436,1.6502,1.6522,1.6567,1.6599,1.6619,1.6654,1.6684,1.6726,1.6746,1.6796,1.6823,1.6862,1.6874,1.6845,1.6958,1.6921,1.6968,1.6968,1.6992,1.699,1.7119,1.701,1.701,1.701,1.701,0,1.6459,1.6518,1.6534,1.6575,1.6641,1.6648,1.6713,1.6732,1.6763,1.6809,1.6804,1.6847,1.6861,1.6907,1.6918,1.6986,1.6999,1.7008,1.701,1.7008,1.7007,1.7026,1.702,1.7014,1.7013,1.7012,1.7011,0,1.6549,1.6562,1.6634,1.667,1.668,1.6727,1.6758,1.6799,1.6813,1.6871,1.6885,1.6909,1.6963,1.6979,1.7045,1.7052,1.7132,1.7129,1.7118,1.7118,1.7164,1.7159,1.731,1.733,1.7208,1.7209,1.721,0,1.6612,1.6656,1.6696,1.6725,1.6746,1.6794,1.6824,1.6833,1.6865,1.6912,1.6947,1.7,1.7042,1.713,1.7154,1.7205,1.7202,1.7252,1.721,1.7206,1.7203,1.7199,1.7204,1.7259,1.7261,1.7262,1.7262,0,1.6722,1.6727,1.6769,1.6815,1.6851,1.6888,1.6924,1.6948,1.6963,1.6999,1.7053,1.7087,1.7153,1.7206,1.7257,1.728,1.7274,1.7275,1.7289,1.7287,1.7279,1.7283,1.7139,1.7272,1.7271,1.727,1.727,1.7269,1.68,1.6839,1.6873,1.6921,1.6949,1.6982,1.7021,1.704,1.7085,1.7138,1.7141,1.72,1.7238,1.7305,1.7331,1.7378,1.7364,1.7384,1.7389,1.7393,1.7396,1.7271,1.7388,1.7388,1.7387,1.7387,1.7387,0,1.691,1.6931,1.6975,1.7024,1.7063,1.7052,1.7091,1.7124,1.7175,1.721,1.7252,1.7314,1.7366,1.7394,1.7445,1.7478,1.7476,1.7491,1.7489,1.7494,1.7406,1.7389,1.7491,1.7491,1.7491,1.7491,1.7491,1.7491,1.6971,1.7036,1.7045,1.7124,1.7145,1.7201,1.7224,1.7256,1.7283,1.7353,1.7395,1.7412,1.7444,1.7498,1.7545,1.7552,1.7572,1.7588,1.7593,1.7511,1.75,1.749,1.7474,1.7592,1.7592,1.7677,1.7677,1.7678]},{"header":{"parameterUnit":"m.s-1","parameterCategory":1,"la1":30.2991,"la2":30.254,"lo1":-89.0895,"lo2":-89.0444,"dy":0.0017,"dx":0.0017,"nx":28,"ny":28,"refTime":"2023-08-17T21:00:00:Z","depth":0,"parameterNumber":3,"parameterNumberName":"V-component_of_WINDS"},"data":[0,0,0,0,0,0,0,0,0,0,0,0,0,0,0,0,0,0,0,0,0,0,0,0,0,0,0,0,0,0,0,0,0,0,0,0,0,0,0,0,0,0,0,0,0,0,0,0,0,0,0,0,0,0,0,0,0,0,3.675,3.6751,0,3.6852,3.6853,3.6854,3.6842,3.6841,3.6839,3.6838,3.6938,3.6942,3.6946,0,0,0,0,0,0,0,0,0,0,0,0,0,3.6538,3.6542,3.675,3.6751,3.6753,3.6852,3.6853,3.6854,3.6843,3.6841,3.6839,3.6837,3.6937,3.6942,3.6947,0,0,0,0,0,0,0,0,0,0,0,0,0,3.6634,3.6543,3.675,3.6759,3.6761,3.6851,3.6853,3.6855,3.6843,3.6841,3.6838,3.6836,3.6935,3.6941,3.6947,3.7034,0,0,3.6966,3.6969,0,0,0,0,0,0,0,0,3.6628,3.6642,3.6756,3.6758,3.6761,3.6832,3.6815,3.6915,3.6844,3.6812,3.6838,3.6835,3.6904,3.6913,3.6937,3.7039,3.7043,3.6967,3.6971,3.6973,3.6975,0,0,0,0,0,0,0,3.6622,3.6637,3.679,3.6758,3.676,3.6755,3.6766,3.6834,3.687,3.6814,3.6814,3.6826,3.6905,3.6931,3.694,3.7045,3.6967,3.6972,3.6976,3.6979,3.7216,3.7218,0,0,0,0,0,0,3.6614,3.6632,3.6787,3.6793,3.6687,3.6761,3.6773,3.6811,3.687,3.6876,3.6828,3.6825,3.6922,3.6932,3.6943,3.7044,3.6973,3.6979,3.6983,3.7213,3.7216,3.7219,0,0,0,0,0,0,3.6609,3.6628,3.6783,3.6712,3.6732,3.6767,3.681,3.6815,3.6841,3.688,3.6886,3.6849,3.692,3.6934,3.701,3.7047,3.6982,3.6988,3.721,3.7214,3.7218,3.7249,0,0,0,0,0,0,3.6603,3.6626,3.6662,3.6713,3.6736,3.6851,3.6813,3.6818,3.6852,3.6849,3.6901,3.6907,3.692,3.7001,3.7017,3.7055,3.6993,3.7207,3.7212,3.7216,3.7245,3.7254,3.7261,0,0,0,0,0,3.6596,3.6668,3.6664,3.6683,3.6781,3.6853,3.6866,3.688,3.6856,3.689,3.6914,3.6905,3.7041,3.7009,3.7026,3.7067,3.7205,3.721,3.7216,3.7242,3.7252,3.7261,0,0,0,0,0,0,3.662,3.6675,3.6671,3.6762,3.6803,3.6851,3.6895,3.6892,3.694,3.6935,3.6949,3.696,3.7036,3.706,3.7023,3.7151,3.7119,3.7129,3.7133,3.7143,3.7151,3.7142,3.6998,0,0,0,0,0,3.6636,3.6692,3.6736,3.6812,3.6832,3.686,3.6892,3.6899,3.6942,3.6959,3.6989,3.7029,3.7079,3.7113,3.7163,3.7249,3.7257,3.7285,3.7293,3.7299,3.7306,3.7347,3.7359,3.7238,3.7238,3.7238,0,0,3.667,3.6706,3.6741,3.6817,3.685,3.6904,3.6875,3.6935,3.6974,3.6968,3.704,3.7063,3.7108,3.7188,3.7225,3.721,3.7341,3.7307,3.7311,3.7315,3.7354,3.7366,3.7376,3.7242,3.7241,3.724,0,0,3.6758,3.6793,3.6857,3.689,3.6939,3.6956,3.6971,3.7019,3.7033,3.7107,3.7101,3.7146,3.7236,3.7266,3.7294,3.7387,3.7379,3.7403,3.7444,3.7484,3.7493,3.7502,3.753,3.7541,3.741,3.741,3.741,0,3.6793,3.6876,3.6891,3.695,3.6981,3.6977,3.7039,3.707,3.7132,3.7152,3.7135,3.7243,3.7274,3.7358,3.738,3.7404,3.7418,3.7396,3.7491,3.75,3.7508,3.7535,3.7546,3.7413,3.7412,3.7412,3.7412,0,3.6914,3.6971,3.7017,3.7076,3.7113,3.7174,3.7194,3.7229,3.7231,3.7249,3.732,3.7356,3.741,3.7431,3.7435,3.7514,3.7502,3.7488,3.7456,3.7521,3.7546,3.7557,3.7416,3.7415,3.7414,3.7414,0,0,3.7022,3.7085,3.7101,3.7125,3.7176,3.722,3.7278,3.7331,3.7358,3.74,3.7446,3.7519,3.7504,3.7535,3.7542,3.7577,3.7642,3.7558,3.7559,3.7568,3.7725,3.7732,3.7745,3.7638,3.764,3.7642,3.7719,0,3.7111,3.7215,3.7227,3.7318,3.7368,3.7362,3.7412,3.7447,3.7464,3.7506,3.7525,3.7574,3.7554,3.7572,3.7607,3.7627,3.7673,3.7622,3.7677,3.7678,3.7662,3.7759,3.7769,3.7841,3.773,3.7732,3.7733,0,3.723,3.7274,3.7369,3.7408,3.743,3.7474,3.752,3.7563,3.76,3.761,3.7641,3.7642,3.7698,3.7665,3.7739,3.7704,3.7726,3.7739,3.7742,3.7745,3.7708,3.7761,3.7865,3.7874,3.775,3.7749,3.7747,0,3.7293,3.7376,3.7442,3.7463,3.7512,3.7542,3.7564,3.7599,3.7628,3.7668,3.7686,3.7732,3.7756,3.779,3.7801,3.7777,3.7873,3.7842,3.7879,3.7878,3.7898,3.7896,3.8002,3.7918,3.7918,3.7918,3.7918,0,3.7389,3.7447,3.747,3.7511,3.7573,3.7585,3.7645,3.7665,3.7695,3.7737,3.7735,3.7774,3.7788,3.7828,3.7837,3.7894,3.7906,3.7912,3.7913,3.7911,3.7909,3.7924,3.7918,3.7921,3.792,3.792,3.7919,0,3.747,3.7488,3.7559,3.7598,3.7609,3.7652,3.7684,3.7721,3.7736,3.7788,3.7801,3.7825,3.7871,3.7886,3.7943,3.7948,3.8013,3.8012,3.8,3.7999,3.8033,3.8028,3.8151,3.8165,3.8075,3.8076,3.8076,0,3.7529,3.7572,3.7614,3.7642,3.7664,3.7709,3.7738,3.775,3.7779,3.7822,3.7853,3.7899,3.7936,3.8009,3.803,3.8071,3.8068,3.8108,3.8075,3.8068,3.8064,3.8059,3.8061,3.8114,3.8115,3.8115,3.8116,0,3.7629,3.7635,3.7677,3.7721,3.7754,3.779,3.7823,3.7846,3.7862,3.7894,3.7941,3.797,3.8025,3.8069,3.8111,3.813,3.8124,3.8126,3.8136,3.8132,3.8122,3.8123,3.8013,3.8123,3.8122,3.8122,3.8122,3.8121,3.7698,3.7734,3.7768,3.7813,3.7839,3.7869,3.7904,3.7922,3.7962,3.8008,3.8013,3.8062,3.8093,3.8148,3.8169,3.8205,3.8194,3.8209,3.8212,3.8215,3.8215,3.8118,3.8213,3.8213,3.8213,3.8213,3.8213,0,3.7794,3.7815,3.7856,3.7902,3.7936,3.7929,3.7964,3.7992,3.8036,3.8066,3.8101,3.8152,3.8194,3.8216,3.8256,3.8281,3.8279,3.8291,3.8287,3.829,3.8226,3.8211,3.8291,3.8291,3.8291,3.8291,3.8291,3.8291,3.7848,3.7907,3.7916,3.7986,3.8006,3.8054,3.8074,3.81,3.8123,3.818,3.8214,3.8229,3.8254,3.8295,3.8331,3.8337,3.835,3.8362,3.8365,3.8304,3.8296,3.8288,3.8274,3.8366,3.8366,3.8426,3.8427,3.8427]}]]